Home > Weather > Papeete > Past weeks

Flag for French Polynesia Past Weather in Papeete, Tahiti, French Polynesia — Yesterday and Last 2 Weeks

Now
82 °F

Scattered clouds.


Feels Like: 85 °F
Forecast: 75 / 83 °F
Wind: 6 mph from Southwest

Location: Tahiti-Faaa

Current Time: Jul 23, 2016 at 11:25:07 AM

Latest Report: Jul 23, 2016 at 11:00 AM


Visibility: N/A

Pressure: 30.01 "Hg

Humidity: 62%

Dew Point: 68 °F

Location of PapeeteLocation

Past Weather in Papeete — Graph

°F

Papeete Temperature Yesterday

Maximum temperature yesterday: 86 °F (at 10:30 AM)
Minimum temperature yesterday: 73 °F (at 3:30 AM)
Average temperature yesterday: 79 °F

High & Low Weather Summary for the Past Weeks

 TemperatureHumidityPressure
High88 °F (Jul 20, 1:00 PM)94% (Jul 13, 1:43 AM)30.07 "Hg (Jul 13, 1:43 AM)
Low70 °F (Jul 9, 4:30 AM)49% (Jul 20, 1:00 PM)29.83 "Hg (Jul 12, 1:30 PM)
Average79 °F72%29.97 "Hg
* Reported Jul 8 10:00 AM — Jul 23 10:00 AM, Papeete, Weather by CustomWeather, © 2016

Note: Actual official high and low records may vary slightly from our data, if they occured in-between our weather recording intervals... More about our weather records

Advertising

Papeete Weather History for the Previous 24 Hours

Scroll right to see more
 ConditionsComfort  
Time TempWeatherWind HumidityBarometerVisibility
10:00 AM
Sat, Jul 23
84 °FPassing clouds.3 mph58%30.01 "HgN/A
9:30 AM82 °FPassing clouds.3 mph62%30.01 "HgN/A
9:00 AM81 °FPassing clouds.5 mph70%30.01 "HgN/A
8:30 AM81 °FPassing clouds.2 mph70%30.01 "HgN/A
8:00 AM79 °FPassing clouds.5 mph74%30.01 "HgN/A
7:30 AM77 °FPassing clouds.6 mph79%30.01 "HgN/A
7:00 AM73 °FPassing clouds.3 mph89%29.98 "HgN/A
6:30 AM73 °FPassing clouds.3 mph89%29.98 "HgN/A
6:00 AM73 °FPassing clouds.3 mph89%29.98 "HgN/A
5:30 AM73 °FMild.3 mph89%29.95 "HgN/A
5:00 AM73 °FPassing clouds.2 mph89%29.95 "HgN/A
4:30 AM73 °FMild.3 mph89%29.95 "HgN/A
4:00 AM75 °FMild.2 mph83%29.95 "HgN/A
3:30 AM75 °FPassing clouds.2 mph83%29.95 "HgN/A
3:00 AM75 °FPassing clouds.3 mph83%29.95 "HgN/A
2:30 AM77 °FPassing clouds.3 mph79%29.98 "HgN/A
2:00 AM77 °FPassing clouds.2 mph79%29.98 "HgN/A
1:30 AM77 °FPassing clouds.3 mph79%29.98 "HgN/A
1:13 AM77 °FPassing clouds.2 mph74%30.01 "HgN/A
12:30 AM77 °FPassing clouds.3 mph79%30.01 "HgN/A
12:00 AM77 °FPassing clouds.3 mph79%30.01 "HgN/A
11:30 PM
Fri, Jul 22
77 °FPassing clouds.3 mph74%30.01 "HgN/A
11:00 PM77 °FPassing clouds.8 mph74%30.01 "HgN/A
10:30 PM75 °FPassing clouds.5 mph83%30.01 "HgN/A
10:00 PM75 °FPassing clouds.3 mph83%30.01 "HgN/A
9:30 PM77 °FPassing clouds.2 mph74%30.01 "HgN/A
9:00 PM75 °FPassing clouds.3 mph78%30.01 "HgN/A
8:35 PM77 °FPassing clouds.3 mph74%30.01 "HgN/A
8:00 PM77 °FPassing clouds.2 mph74%30.01 "HgN/A
7:30 PM79 °FPassing clouds.3 mph70%30.01 "HgN/A
7:00 PM79 °FPassing clouds.No wind70%29.98 "HgN/A
6:34 PM79 °FPassing clouds.2 mph70%29.98 "HgN/A
6:00 PM81 °FPassing clouds.3 mph70%29.98 "HgN/A
5:30 PM82 °FPassing clouds.2 mph66%29.98 "HgN/A
5:00 PM84 °FPassing clouds.3 mph58%29.98 "HgN/A
4:30 PM84 °FPassing clouds.6 mph62%29.98 "HgN/A
4:00 PM84 °FPassing clouds.6 mph62%29.95 "HgN/A
3:30 PM84 °FPassing clouds.8 mph66%29.98 "HgN/A
3:00 PM82 °FScattered clouds.10 mph66%29.98 "HgN/A
2:37 PM82 °FScattered clouds.12 mph66%29.98 "HgN/A
2:00 PM82 °FScattered clouds.14 mph66%29.98 "HgN/A
1:30 PM82 °FScattered clouds.16 mph66%29.98 "HgN/A
1:00 PM82 °FPassing clouds.17 mph66%29.98 "HgN/A
12:30 PM84 °FScattered clouds.16 mph62%30.01 "HgN/A
12:00 PM84 °FPassing clouds.10 mph62%30.01 "HgN/A
11:30 AM86 °FPassing clouds.5 mph55%30.01 "HgN/A
11:00 AM86 °FPassing clouds.15 mph55%30.01 "HgN/A
Weather by CustomWeather, © 2016

See weather overviewHow to use our weather pages